Time,TemperatureF,DewpointF,PressureIn,WindDirection,WindDirectionDegrees,WindSpeedMPH,WindSpeedGustMPH,Humidity,HourlyPrecipIn,Conditions,Clouds,dailyrainin,SolarRadiationWatts/m^2,SoftwareType,DateUTC
2013-02-15 00:00:00,43.1,39.2,29.97,WNW,292,1.0,5.0,86,0.00,,CLR,0.00,0.00,VWS V14.01,2013-02-15 05:00:00,
2013-02-15 00:30:00,41.1,38.4,29.98,WSW,248,0.0,3.0,90,0.00,,CLR,0.00,0.00,VWS V14.01,2013-02-15 05:30:00,
2013-02-15 01:00:00,40.6,38.7,29.98,WSW,248,0.0,3.0,93,0.00,,CLR,0.00,0.00,VWS V14.01,2013-02-15 06:00:00,
2013-02-15 01:30:00,41.5,39.9,29.97,WSW,248,1.0,5.0,94,0.00,,CLR,0.00,0.00,VWS V14.01,2013-02-15 06:30:00,
2013-02-15 02:00:00,40.5,38.6,29.98,NW,315,2.0,6.0,93,0.00,,CLR,0.00,0.00,VWS V14.01,2013-02-15 07:00:00,
2013-02-15 02:30:00,39.8,38.0,29.97,West,270,2.0,5.0,93,0.00,,CLR,0.00,0.00,VWS V14.01,2013-02-15 07:30:00,
2013-02-15 03:00:00,38.8,36.1,29.97,NW,315,2.0,6.0,90,0.00,,CLR,0.00,0.00,VWS V14.01,2013-02-15 08:00:00,
2013-02-15 03:30:00,37.9,35.2,29.97,WSW,248,1.0,4.0,90,0.00,,CLR,0.00,0.00,VWS V14.01,2013-02-15 08:30:00,
2013-02-15 04:00:00,37.6,35.2,29.97,West,270,1.0,4.0,91,0.00,,CLR,0.00,0.00,VWS V14.01,2013-02-15 09:00:00,
2013-02-15 04:30:00,38.3,35.9,29.97,WNW,292,1.0,5.0,91,0.00,,CLR,0.00,0.00,VWS V14.01,2013-02-15 09:30:00,
2013-02-15 05:00:00,38.5,35.8,29.97,WNW,292,1.0,4.0,90,0.00,,CLR,0.00,0.00,VWS V14.01,2013-02-15 10:00:00,
2013-02-15 05:30:00,38.2,35.2,29.98,NW,315,1.0,5.0,89,0.00,,CLR,0.00,0.00,VWS V14.01,2013-02-15 10:30:00,
2013-02-15 06:00:00,36.9,34.5,29.98,West,270,0.0,3.0,91,0.00,,CLR,0.00,0.00,VWS V14.01,2013-02-15 11:00:00,
2013-02-15 06:30:00,37.6,35.5,30.00,West,270,0.0,3.0,92,0.00,,CLR,0.00,0.00,VWS V14.01,2013-02-15 11:30:00,
2013-02-15 07:00:00,37.9,36.3,30.00,West,270,1.0,3.0,94,0.00,,CLR,0.00,0.00,VWS V14.01,2013-02-15 12:00:00,
2013-02-15 07:30:00,37.6,36.0,30.00,West,270,1.0,3.0,94,0.00,,CLR,0.00,5.00,VWS V14.01,2013-02-15 12:30:00,
2013-02-15 08:00:00,38.5,37.2,30.01,West,270,1.0,4.0,95,0.00,,CLR,0.00,20.00,VWS V14.01,2013-02-15 13:00:00,
2013-02-15 08:30:00,40.8,39.2,30.01,NNW,338,1.0,4.0,94,0.00,,CLR,0.00,138.00,VWS V14.01,2013-02-15 13:30:00,
2013-02-15 09:00:00,43.1,39.2,30.01,NNW,338,1.0,4.0,86,0.00,,CLR,0.00,247.00,VWS V14.01,2013-02-15 14:00:00,
2013-02-15 09:30:00,45.7,39.6,30.00,NNW,338,0.0,3.0,79,0.00,,CLR,0.00,338.00,VWS V14.01,2013-02-15 14:30:00,
2013-02-15 10:00:00,48.0,40.1,29.99,North,0,0.0,1.0,74,0.00,,CLR,0.00,422.00,VWS V14.01,2013-02-15 15:00:00,
2013-02-15 10:30:00,51.0,40.4,29.99,ESE,112,1.0,4.0,67,0.00,,CLR,0.00,503.00,VWS V14.01,2013-02-15 15:30:00,
2013-02-15 11:00:00,54.1,39.7,29.98,SSE,158,1.0,5.0,58,0.00,,CLR,0.00,572.00,VWS V14.01,2013-02-15 16:00:00,
2013-02-15 11:30:00,56.3,38.9,29.97,SSE,158,2.0,7.0,52,0.00,,CLR,0.00,628.00,VWS V14.01,2013-02-15 16:30:00,
2013-02-15 12:00:00,58.6,34.4,29.95,SE,135,3.0,10.0,40,0.00,,CLR,0.00,668.00,VWS V14.01,2013-02-15 17:00:00,
2013-02-15 12:30:00,59.6,34.0,29.94,SE,135,4.0,11.0,38,0.00,,CLR,0.00,697.00,VWS V14.01,2013-02-15 17:30:00,
2013-02-15 13:00:00,60.1,33.8,29.92,SE,135,4.0,14.0,37,0.00,,CLR,0.00,713.00,VWS V14.01,2013-02-15 18:00:00,
2013-02-15 13:30:00,60.7,33.6,29.90,SE,135,4.0,12.0,36,0.00,,CLR,0.00,750.00,VWS V14.01,2013-02-15 18:30:00,
2013-02-15 14:00:00,59.8,34.8,29.88,SE,135,2.0,11.0,39,0.00,,CLR,0.00,215.00,VWS V14.01,2013-02-15 19:00:00,
2013-02-15 14:30:00,59.6,34.0,29.86,SSE,158,1.0,7.0,38,0.00,,CLR,0.00,168.00,VWS V14.01,2013-02-15 19:30:00,
2013-02-15 15:00:00,59.6,32.6,29.85,SSE,158,1.0,9.0,36,0.00,,CLR,0.00,117.00,VWS V14.01,2013-02-15 20:00:00,
2013-02-15 15:30:00,61.5,32.2,29.84,WSW,248,2.0,11.0,33,0.00,,CLR,0.00,353.00,VWS V14.01,2013-02-15 20:30:00,
2013-02-15 16:00:00,60.2,32.5,29.84,WSW,248,1.0,10.0,35,0.00,,CLR,0.00,123.00,VWS V14.01,2013-02-15 21:00:00,
2013-02-15 16:30:00,60.1,33.1,29.84,WSW,248,1.0,9.0,36,0.00,,CLR,0.00,106.00,VWS V14.01,2013-02-15 21:30:00,
2013-02-15 17:00:00,60.7,31.5,29.83,WSW,248,1.0,13.0,33,0.00,,CLR,0.00,120.00,VWS V14.01,2013-02-15 22:00:00,
2013-02-15 17:30:00,59.6,31.9,29.83,West,270,2.0,12.0,35,0.00,,CLR,0.00,49.00,VWS V14.01,2013-02-15 22:30:00,
2013-02-15 18:00:00,58.4,32.9,29.84,WSW,248,1.0,6.0,38,0.00,,CLR,0.00,41.00,VWS V14.01,2013-02-15 23:00:00,
2013-02-15 18:30:00,57.0,32.9,29.85,WSW,248,1.0,7.0,40,0.00,,CLR,0.00,3.00,VWS V14.01,2013-02-15 23:30:00,
2013-02-15 19:00:00,56.5,33.1,29.85,West,270,2.0,9.0,41,0.00,,CLR,0.00,0.00,VWS V14.01,2013-02-16 00:00:00,
2013-02-15 19:30:00,55.1,34.7,29.86,West,270,3.0,13.0,46,0.00,,CLR,0.00,0.00,VWS V14.01,2013-02-16 00:30:00,
2013-02-15 20:00:00,54.5,37.7,29.87,WNW,292,6.0,13.0,53,0.00,,CLR,0.00,0.00,VWS V14.01,2013-02-16 01:00:00,
2013-02-15 20:30:00,53.9,40.3,29.87,WNW,292,6.0,14.0,60,0.00,,CLR,0.00,0.00,VWS V14.01,2013-02-16 01:30:00,
2013-02-15 21:00:00,52.8,38.5,29.88,NW,315,4.0,10.0,58,0.00,,CLR,0.00,0.00,VWS V14.01,2013-02-16 02:00:00,
2013-02-15 21:30:00,51.7,38.7,29.89,WNW,292,5.0,13.0,61,0.00,,CLR,0.00,0.00,VWS V14.01,2013-02-16 02:30:00,
2013-02-15 22:00:00,49.9,35.7,29.89,WNW,292,10.0,21.0,58,0.00,,CLR,0.00,0.00,VWS V14.01,2013-02-16 03:00:00,
2013-02-15 22:30:00,49.1,36.2,29.88,West,270,8.0,16.0,61,0.00,,CLR,0.00,0.00,VWS V14.01,2013-02-16 03:30:00,
2013-02-15 23:00:00,47.7,34.9,29.89,WSW,248,4.0,12.0,61,0.00,,CLR,0.00,0.00,VWS V14.01,2013-02-16 04:00:00,
2013-02-15 23:30:00,47.4,34.6,29.87,West,270,3.0,7.0,61,0.00,,CLR,0.00,0.00,VWS V14.01,2013-02-16 04:30:00,